Simultaneous Nadir Overpasses (SNOs) Predictions

Prediction of SNOs over PacNW region [( 10.00, 139.50) to ( 22.70, 165.60)] between AQUA and NPP Satellites:

Table of predicted SNOs over PacNW region for the next 30.0 days since TLE Epoch: 10/14/2016
Index Date (AQUA) Time (AQUA) AQUA Lat,Lon Date (NPP) Time (NPP) NPP Lat,Lon Distance(km) Time Diff (sec)
1 10/15/2016 03:31:16 22.66, 147.52 10/15/2016 03:27:49 22.31, 145.86 174.76 207
2 10/20/2016 15:58:50 22.63, 147.49 10/20/2016 16:02:19 23.61, 144.63 312.65 209
3 10/23/2016 02:41:45 22.64, 159.90 10/23/2016 02:38:16 26.45, 157.46 490.08 209
4 10/28/2016 15:09:17 22.63, 159.88 10/28/2016 15:11:42 23.20, 157.19 282.82 145
5 10/31/2016 03:31:06 22.70, 147.55 10/31/2016 03:27:52 22.31, 145.81 184.18 194
6 11/05/2016 15:58:34 22.63, 147.55 11/05/2016 16:02:03 24.63, 144.84 355.09 209
7 11/08/2016 02:41:28 22.65, 159.97 11/08/2016 02:37:59 25.35, 157.71 377.43 209




NCC Satellite Simultaneous Nadir Overpasses (SNOs) Prediction Service
